Location: Goodnestone
(51.2333°N, 1.2333°E)
Time: 05:19:50
(UTC+00:00)

Daily predictions for brighter satellites

Satellite Brightness Start Highest point End
(mag) Time Altitude Azimuth Time Altitude Azimuth Time Altitude Azimuth
Lacrosse 4 Rocket 4.3 00:13:47 14° NNE 00:13:47 14° NNE 00:14:27 10° NNE
USA 215 4.2 00:37:43 37° WNW 00:37:43 37° WNW 00:41:26 10° WNW
SL-16 R/B 4.0 00:36:20 28° E 00:37:56 32° ENE 00:43:21 10° N
Lacrosse 5 4.3 00:46:22 14° ENE 00:46:22 14° ENE 00:47:12 10° ENE
Cosmos 2369 Rocket 4.2 00:51:44 19° E 00:51:44 19° E 00:54:31 10° NE
Cosmos 2082 Rocket 4.1 00:57:39 10° NW 00:59:26 20° NW 00:59:26 20° NW
Cosmos 1943 Rocket 3.0 01:10:34 49° NE 01:10:34 49° NE 01:14:37 10° NNE
Resurs 1-4 Rocket 3.4 01:05:27 10° NNE 01:09:19 34° ENE 01:09:19 34° ENE
CZ-2D R/B 3.3 01:09:50 10° NNE 01:13:47 36° ENE 01:13:47 36° ENE
IDEFIX/ARIANE 42P 4.1 01:10:17 10° NNE 01:14:03 29° ENE 01:14:03 29° ENE
Cosmos 2278 Rocket 3.2 01:18:05 41° NNW 01:18:05 41° NNW 01:22:39 10° NNE
ATLAS 2AS CENTAUR R/B 4.4 01:14:11 10° WNW 01:20:37 31° N 01:26:44 10° ENE
Cosmos 2285 Rocket 4.4 01:42:05 53° ESE 01:42:07 53° ESE 01:48:13 10° NNE
ATLAS 5 CENTAUR R/B 3.3 01:49:50 29° NNE 01:49:50 29° NNE 01:52:08 10° NE
Lacrosse 4 Rocket 3.8 01:49:55 17° NNW 01:49:55 17° NNW 01:52:17 10° N
Cosmos 1745 Rocket 4.0 01:50:56 72° ESE 01:51:00 72° E 01:57:07 10° NNE
Cosmos 2297 3.8 01:57:51 75° NNE 01:57:51 75° NNE 02:03:06 10° NNE
Thor Agena Rocket 4.0 01:54:39 10° NNE 01:59:16 53° E 01:59:16 53° E
Cosmos 44 4.4 02:03:03 36° E 02:03:03 36° E 02:06:18 10° NE
Cosmos 1709 Rocket 4.3 02:01:31 53° SE 02:02:26 58° E 02:08:29 10° NNE
ADEOS II 2.3 02:01:59 10° NNE 02:07:06 65° E 02:07:06 65° E
ATLAS CENTAUR R/B 2.4 02:14:40 47° NE 02:14:40 47° NE 02:17:47 10° NE
Cosmos 1538 Rocket 4.3 02:13:57 61° ESE 02:13:57 61° ESE 02:19:16 10° NNE
AQUA 4.1 02:12:22 10° NNE 02:16:33 67° NE 02:16:33 67° NE
ERS-2 4.1 02:14:49 10° NNE 02:16:43 26° NE 02:16:43 26° NE
Cosmos 1782 4.3 02:20:47 33° E 02:20:47 33° E 02:23:58 10° NNE
SL-16 R/B 2.5 02:21:24 62° W 02:21:24 62° W 02:27:25 10° NNW
NPP 3.7 02:18:25 10° NNE 02:23:37 68° WNW 02:23:37 68° WNW
Lacrosse 5 1.9 02:25:33 74° N 02:25:33 74° N 02:30:28 10° ENE
MSX 3.7 02:26:08 10° NNE 02:31:57 87° WNW 02:32:40 70° SSW
Cosmos 1766 Rocket 4.0 02:28:20 10° N 02:31:58 57° N 02:31:58 57° N
Cosmos 2369 Rocket 2.0 02:33:30 74° W 02:33:51 77° WNW 02:39:30 10° NNE
SeaSat 1 3.0 02:29:21 10° NE 02:34:06 47° ESE 02:34:46 44° SE
IRIDIUM 104 4.3 02:36:18 70° WNW 02:36:18 70° WNW 02:41:23 10° N
Cosmos 2297 Rocket 4.1 02:32:42 10° NNW 02:37:39 29° NE 02:42:35 10° ESE
Cosmos 1656 Rocket 3.5 02:38:51 69° W 02:39:12 71° WNW 02:44:45 10° NNE
Cosmos 1867 4.3 02:34:38 10° NW 02:38:10 40° WNW 02:38:10 40° WNW
Cosmos 1933 3.8 02:41:04 57° ENE 02:41:04 57° ENE 02:44:49 10° NNE
Cosmos 2221 2.7 02:42:19 65° ESE 02:42:23 66° E 02:46:42 10° NNE
SL-27 R/B 4.2 02:39:42 10° N 02:42:12 29° NE 02:42:12 29° NE
FENGYUN 3A 4.1 02:39:28 10° NNE 02:44:51 58° E 02:46:49 37° SSE
IRIDIUM 114 4.4 02:45:26 59° WNW 02:45:26 59° WNW 02:50:31 10° N
CZ-2C R/B 3.3 02:42:23 10° SE 02:47:50 57° ENE 02:53:14 10° N
BREEZE-M DEB (TANK) 4.3 02:47:29 43° SSW 02:49:17 53° SSE 02:52:58 10° E
Resurs 1-4 Rocket 2.8 02:45:19 10° N 02:50:14 39° WNW 02:50:23 39° WNW
Cosmos 1943 Rocket 3.5 02:52:04 24° WNW 02:53:21 26° NW 02:58:03 10° NNE
Cosmos 2227 Rocket 4.3 02:49:37 10° NNW 02:54:21 26° NE 02:59:03 10° E
IDEFIX/ARIANE 42P 2.9 02:49:37 10° N 02:54:35 47° WNW 02:54:50 47° WNW
CZ-2D R/B 2.8 02:50:00 10° N 02:54:50 38° WNW 02:55:06 37° WNW
Cosmos 1812 3.0 02:56:54 58° N 02:56:54 58° N 03:00:00 10° N
Meteor 1-20 Rocket 4.4 02:53:23 10° NNW 02:58:44 48° W 02:58:44 48° W
Cosmos 2278 Rocket 4.4 02:59:54 11° WNW 03:02:51 15° NNW 03:06:05 10° N
COSMOS 2441 4.5 03:01:02 10° N 03:05:49 56° WNW 03:06:21 53° W
Meteor 1-26 Rocket 4.4 03:03:21 31° S 03:06:10 71° E 03:11:58 10° NNE
ALOS 2.4 03:03:59 10° NNE 03:08:38 69° ESE 03:10:20 38° S
Cosmos 1242 Rocket 4.2 03:06:48 10° NNW 03:08:21 24° NNW 03:08:21 24° NNW
CZ-4 R/B 4.4 03:08:13 10° N 03:12:58 44° WNW 03:13:35 42° W
ATLAS 2AS CENTAUR R/B 4.0 03:06:42 10° NW 03:13:24 39° NNE 03:19:45 10° E
CZ-2C R/B 3.2 03:09:28 10° NNE 03:14:09 49° E 03:17:42 18° S
Helios 1A 3.0 03:18:45 12° SSE 03:22:31 78° ENE 03:26:41 10° NNW
Sich 1 3.9 03:19:30 10° N 03:23:50 51° ENE 03:28:07 10° SSE
Cosmos 1408 Rocket 3.4 03:19:45 10° NNW 03:24:12 71° W 03:25:56 36° S
Cosmos 546 4.4 03:28:05 63° WSW 03:28:37 78° S 03:32:26 10° ESE
Cosmos 921 Rocket 4.2 03:28:15 28° WNW 03:28:43 29° WNW 03:32:41 10° N
GEOS 3 Rocket 3.7 03:23:34 10° SE 03:28:48 83° NE 03:34:10 10° NW
USA 102 4.0 03:29:12 49° ESE 03:30:11 72° NE 04:50:29 10° NW
USA 102 4.0 03:29:12 49° ESE 03:30:12 72° NE 03:38:13 10° NNW
Cosmos 1743 4.3 03:26:53 10° N 03:30:22 35° ENE 03:33:49 10° SE
YAOGAN 6 4.2 03:27:36 10° NNE 03:30:48 31° E 03:34:01 10° SSE
NOSS 3-4 (A) 3.8 03:25:31 10° NW 03:32:19 69° SW 03:40:05 10° SSE
NOSS 2-1 (C) 3.6 03:28:20 10° NW 03:32:22 89° SW 03:38:01 10° SE
NOSS 3-4 (C) 3.7 03:25:37 10° NW 03:32:25 70° SW 03:40:11 10° SSE
ATLAS 5 CENTAUR R/B 3.4 03:31:08 15° NW 03:33:12 21° NNW 03:36:41 10° NE
NOSS 2-1 (D) 3.6 03:33:14 10° NW 03:37:18 84° SW 03:42:57 10° SE
Okean 3 Rocket 4.5 03:34:45 10° NNW 03:38:10 29° WNW 03:38:10 29° WNW
Cosmos 1743 Rocket 3.5 03:35:56 10° NNW 03:40:25 84° W 03:44:54 10° S
Cosmos 923 Rocket 4.0 03:38:22 33° SW 03:40:37 63° WNW 03:45:49 10° NNE
Orbus 7S? 4.0 03:32:52 10° WNW 03:41:21 76° SW 03:45:06 10° SE
NOSS 3-3 (A) 4.1 03:39:09 30° WSW 03:42:09 63° NW 03:48:55 10° NE
NOSS 3-3 (C) 4.1 03:39:15 30° WSW 03:42:15 63° NW 03:49:01 10° NE
Cosmos 44 4.0 03:41:26 28° W 03:43:08 38° NW 03:47:37 10° NNE
ARGOS Delta rocket 4.0 03:43:51 35° SW 03:44:49 39° W 03:49:00 10° NNW
ADEOS II 3.4 03:42:19 10° N 03:46:29 24° WNW 03:48:01 21° W
Meteor 1-14 Rocket 4.1 03:42:03 10° NNW 03:47:35 70° W 03:53:07 10° S
Cosmos 1680 Rocket 3.5 03:45:16 27° SW 03:48:09 72° WNW 03:53:28 10° NNE
Cosmos 2184 Rocket 3.9 03:43:48 18° SSW 03:48:29 70° WNW 03:54:40 10° N
ERS-2 3.6 03:48:05 10° NNW 03:50:31 20° WNW 03:50:31 20° WNW
METEOR-M 4.1 03:45:48 10° NNE 03:51:11 87° ESE 03:56:11 12° SSW
ATLAS CENTAUR R/B 3.0 03:50:20 18° WNW 03:52:18 25° NNW 03:55:51 10° NNE
Cosmos 1782 4.0 03:56:09 24° W 03:56:33 25° WNW 03:59:50 10° NNW
Cosmos 1842 Rocket 4.1 03:55:36 29° WSW 03:57:06 38° WNW 04:01:12 10° N
Cosmos 1371 Rocket 4.3 03:53:37 10° NW 03:58:28 41° WSW 04:03:16 10° S
ARIANE 5 R/B 3.5 03:54:18 10° NNE 03:59:20 49° E 04:04:23 10° S
Cosmos 2112 Rocket 4.0 03:56:26 22° SW 03:59:48 67° WNW 04:05:06 10° NNE
CZ-2C R/B 2.9 03:56:19 10° NNE 04:01:07 82° ESE 04:06:02 10° SSW
IRS-1D 3.9 03:58:05 10° N 04:02:47 43° WNW 04:05:39 22° SW
SL-08 R/B 4.3 04:00:38 10° SE 04:05:18 52° ENE 04:09:55 10° N
BREEZE-M DEB (TANK) 2.8 04:02:55 20° W 04:05:47 64° SSW 04:08:13 10° ESE
Cosmos 2056 Rocket 3.9 04:01:12 10° NW 04:05:58 38° WSW 04:10:48 10° S
SL-16 R/B 4.3 04:06:28 12° WNW 04:06:28 12° WNW 04:08:27 10° WNW
Cosmos 1461 3.0 04:04:09 21° SW 04:07:04 88° SE 04:11:42 10° NE
USA 102 3.7 04:06:34 38° WSW 04:07:12 40° W 04:14:37 10° NW
Cosmos 405 Rocket 4.0 04:04:23 10° SSE 04:07:45 38° E 04:11:10 10° NNE
Lacrosse 5 2.7 04:04:44 14° WNW 04:08:52 44° N 04:13:45 10° ENE
USA 281 3.6 04:03:44 10° SE 04:10:14 68° ENE 04:16:47 10° NNW
SeaSat 1 3.2 04:07:00 10° NNE 04:11:31 37° NW 04:14:31 19° WSW
Cosmos 2154 Rocket 4.0 04:05:19 10° SSW 04:11:31 63° WNW 04:17:44 10° N
H-2A R/B 4.2 04:08:15 10° NNE 04:11:38 36° E 04:14:56 10° SSE
Cosmos 1500 Rocket 4.1 04:08:36 10° NNW 04:12:33 35° W 04:16:17 11° SSW
Cosmos 1437 Rocket 3.2 04:09:30 10° N 04:13:20 61° ENE 04:17:04 10° SSE
GP-B 3.3 04:10:44 10° N 04:15:11 73° E 04:19:36 10° S
Nadezhda 3 Rocket 4.2 04:10:18 10° NNW 04:16:20 50° W 04:22:23 10° SSW
SL-27 R/B 4.4 04:14:33 10° NW 04:15:04 13° WNW 04:15:04 13° WNW
Cosmos 2369 Rocket 3.8 04:15:17 13° W 04:18:50 21° NW 04:23:06 10° NNE
Cosmos 1805 Rocket 4.0 04:15:46 10° NNW 04:19:57 41° W 04:24:08 10° SSW
Cosmos 1110 Rocket 4.1 04:14:57 10° NNW 04:20:09 80° ENE 04:25:21 10° SSE
Cosmos 2221 4.2 04:19:04 15° W 04:20:19 17° WNW 04:23:12 10° NNW
Genesis I 3.5 04:19:26 20° WSW 04:21:56 53° NW 04:25:46 10° NE
Cosmos 2297 Rocket 2.1 04:16:33 10° NNW 04:22:12 69° WSW 04:27:49 10° SSE
IRS-P3 4.4 04:17:28 10° NNE 04:22:49 73° ESE 04:28:08 10° S
Cosmos 1515 3.8 04:20:33 13° SSW 04:23:39 50° WNW 04:27:17 10° N
COSMO-SKYMED 1 4.0 04:21:05 10° SE 04:25:10 42° ENE 04:29:17 10° N
Meteor 1-27 Rocket 4.2 04:19:55 10° S 04:25:38 66° E 04:31:15 10° NNE
Cosmos 962 Rocket 4.5 04:20:24 10° S 04:26:33 85° W 04:32:48 10° N
Cosmos 1607 4.1 04:20:31 10° SSW 04:26:38 78° SE 04:32:53 10° NE
CBERS-1 4.3 04:22:34 10° N 04:27:30 49° WNW 04:32:24 10° SW
NOAA 11 4.4 04:22:16 10° NNE 04:27:44 74° ESE 04:33:10 10° S
CZ-2C R/B 3.6 04:23:45 10° SSW 04:28:26 27° W 04:33:06 10° NW
Cosmos 1328 Rocket 4.2 04:25:22 10° S 04:29:35 56° E 04:33:49 10° NNE
Cosmos 1378 3.6 04:27:13 10° S 04:30:44 61° E 04:34:17 10° NNE
Cosmos 1331 Rocket 4.1 04:25:32 10° NNW 04:30:48 88° ENE 04:36:06 10° SSE
Cosmos 1484 Rocket 2.6 04:27:13 10° N 04:30:57 74° WNW 04:34:46 10° SSW
NOSS 2-1 (E) 4.3 04:26:50 10° WNW 04:30:58 41° SW 04:36:36 10° SSE
Cosmos 1536 2.7 04:28:06 10° NNW 04:32:03 65° W 04:35:59 10° S
Cosmos 2218 Rocket 4.4 04:26:43 10° S 04:33:00 70° E 04:39:24 10° NNE
USA 276 2.0 04:33:50 17° WSW 04:35:48 62° S 04:38:41 10° E
Cosmos 494 Rocket 4.2 04:30:40 10° SSW 04:35:55 80° ESE 04:41:11 10° NNE
BREEZE-M DEB (TANK) 4.3 04:28:43 13° WSW 04:37:34 70° S 04:40:55 10° E
USA 32 4.2 04:33:01 10° NNW 04:38:04 49° W 04:43:05 10° SSW
Cosmos 2227 Rocket 2.2 04:33:23 10° NNW 04:39:03 81° WSW 04:44:42 10° SSE
Cosmos 2219 3.4 04:35:01 10° NNW 04:40:42 82° ENE 04:46:25 10° SSE
SL-19 R/B 4.1 04:35:57 10° NNE 04:41:09 63° WNW 04:46:16 10° SSW
Cosmos 1452 Rocket 3.6 04:38:08 10° NNW 04:43:19 55° WSW 04:48:27 10° S
Cosmos 1151 Rocket 3.1 04:40:03 10° SSW 04:44:19 59° WNW 04:48:36 10° N
ALOS 3.8 04:42:11 10° NNW 04:45:31 20° WNW 04:48:46 10° WSW
COSMOS 2455 3.0 04:39:52 10° SSW 04:45:54 84° SE 04:52:00 10° NE
Cosmos 2341 Rocket 4.0 04:40:19 10° SSW 04:46:41 75° W 04:53:05 10° N
Envisat 3.2 04:44:17 10° N 04:49:12 51° WNW 04:54:06 10° SW
Meteor 1-11 Rocket 3.9 04:44:09 10° NNW 04:49:29 48° W 04:54:45 10° SSW
CZ-2C R/B 3.4 04:48:06 10° N 04:52:08 28° WNW 04:56:16 10° WSW
Cosmos 1048 Rocket 4.1 04:46:49 10° SSW 04:52:12 85° WNW 04:57:37 10° NNE
Cosmos 1727 Rocket 4.2 04:47:43 10° N 04:53:57 77° E 05:00:08 10° SSE
CZ-4C R/B 4.3 04:53:33 10° SE 04:56:53 46° ENE 05:00:19 10° N
Cosmos 2366 rocket 4.0 04:51:45 10° SSW 04:57:59 81° W 05:04:21 10° N
PSLV R/B 4.3 04:54:35 10° NNE 04:58:49 57° ESE 05:03:02 10° S
Sich 1 4.4 04:57:49 10° NW 05:01:04 20° W 05:04:16 10° SW
YAOGAN 6 3.8 05:00:53 10° NNW 05:03:45 23° WNW 05:06:37 10° WSW
APEX 4.4 05:00:15 10° S 05:04:00 41° ESE 05:07:13 10° NE
Cosmos 1656 3.7 04:59:19 10° SW 05:04:42 62° NW 05:10:11 10° NNE
ATLAS 2AS CENTAUR R/B 2.8 04:57:59 10° NW 05:05:06 87° SW 05:11:46 10° SE
